When you browse on this site, cookies collect data to enhance your experience and personalize the content and advertising you see.
Visit our Privacy Policy to learn more. By continuing to use the site, you agree to this use of cookies and data.
  • In Hungary
  • List of Countries
  • For 7 days
  • Water Temperature
  • Weather Map
  • News
  • Weather Widgets
  • user-avatar
    Login

    Hourly Weather Jora

    Today, 14 November, Thursday

    Time Temperature Precipitation Wind Pressure Humidity
    00:00 +26°C° 0 mm 1 mps 744 mmHg 52%
    01:00 +25°C° 0 mm 1 mps 744 mmHg 52%
    02:00 +25°C° 0 mm 1 mps 744 mmHg 52%
    03:00 +24°C° 0 mm 1 mps 744 mmHg 53%
    04:00 +24°C° 0 mm 1 mps 744 mmHg 53%
    05:00 +23°C° 0 mm 1 mps 744 mmHg 53%
    06:00 +24°C° 0 mm 1 mps 744 mmHg 51%
    07:00 +25°C° 0 mm 1 mps 745 mmHg 49%
    08:00 +26°C° 0 mm 1 mps 745 mmHg 47%
    09:00 +28°C° 0 mm 1 mps 745 mmHg 42%
    10:00 +30°C° 0 mm 1 mps 745 mmHg 38%
    11:00 +31°C° 0 mm 1 mps 745 mmHg 33%
    12:00 +32°C° 0 mm 1 mps 744 mmHg 31%
    13:00 +32°C° 0 mm 1 mps 744 mmHg 29%
    14:00 +34°C° 0 mm 2 mps 743 mmHg 28%
    15:00 +31°C° 0 mm 2 mps 743 mmHg 30%
    16:00 +30°C° 0 mm 2 mps 743 mmHg 33%
    17:00 +29°C° 0 mm 2 mps 743 mmHg 35%
    18:00 +28°C° 0 mm 2 mps 743 mmHg 36%
    19:00 +27°C° 0 mm 2 mps 744 mmHg 36%
    20:00 +26°C° 0 mm 2 mps 744 mmHg 36%
    21:00 +26°C° 0 mm 2 mps 744 mmHg 37%
    22:00 +25°C° 0 mm 1 mps 744 mmHg 38%
    23:00 +24°C° 0 mm 1 mps 743 mmHg 39%

    Tomorrow, 15 November, Friday

    Time Temperature Precipitation Wind Pressure Humidity
    00:00 +24°C° 0 mm 1 mps 743 mmHg 40%
    01:00 +23°C° 0 mm 1 mps 743 mmHg 41%
    02:00 +21°C° 0 mm 0 mps 742 mmHg 42%
    03:00 +21°C° 0 mm 0 mps 742 mmHg 43%
    04:00 +20°C° 0 mm 0 mps 742 mmHg 44%
    05:00 +20°C° 0 mm 0 mps 742 mmHg 45%
    06:00 +21°C° 0 mm 0 mps 743 mmHg 43%
    07:00 +22°C° 0 mm 0 mps 744 mmHg 42%
    08:00 +23°C° 0 mm 0 mps 744 mmHg 40%
    09:00 +25°C° 0 mm 0 mps 744 mmHg 37%
    10:00 +26°C° 0 mm 0 mps 744 mmHg 33%
    11:00 +30°C° 0 mm 1 mps 744 mmHg 29%
    12:00 +31°C° 0 mm 1 mps 743 mmHg 28%
    13:00 +31°C° 0 mm 2 mps 743 mmHg 27%
    14:00 +32°C° 0 mm 2 mps 742 mmHg 26%
    15:00 +30°C° 0 mm 2 mps 742 mmHg 29%
    16:00 +29°C° 0 mm 2 mps 741 mmHg 32%
    17:00 +28°C° 0 mm 1 mps 741 mmHg 35%
    18:00 +27°C° 0 mm 1 mps 742 mmHg 36%
    19:00 +26°C° 0 mm 1 mps 742 mmHg 38%
    20:00 +23°C° 0 mm 0 mps 743 mmHg 39%
    21:00 +23°C° 0 mm 0 mps 743 mmHg 41%
    22:00 +24°C° 0 mm 1 mps 743 mmHg 42%
    23:00 +24°C° 0 mm 1 mps 742 mmHg 43%

    Day after tomorrow, 16 November, Saturday

    Time Temperature Precipitation Wind Pressure Humidity
    00:00 +23°C° 0 mm 1 mps 742 mmHg 44%
    01:00 +23°C° 0 mm 1 mps 742 mmHg 45%
    02:00 +21°C° 0 mm 2 mps 742 mmHg 46%
    03:00 +20°C° 0 mm 2 mps 742 mmHg 47%
    04:00 +20°C° 0 mm 2 mps 742 mmHg 49%
    05:00 +20°C° 0 mm 2 mps 742 mmHg 51%
    06:00 +20°C° 0 mm 2 mps 743 mmHg 50%
    07:00 +21°C° 0 mm 2 mps 743 mmHg 49%
    08:00 +23°C° 0 mm 2 mps 744 mmHg 48%
    09:00 +25°C° 0 mm 2 mps 744 mmHg 44%
    10:00 +27°C° 0 mm 2 mps 744 mmHg 39%
    11:00 +29°C° 0 mm 2 mps 744 mmHg 35%
    12:00 +30°C° 0 mm 2 mps 743 mmHg 32%
    13:00 +31°C° 0 mm 2 mps 743 mmHg 30%
    14:00 +33°C° 0 mm 3 mps 742 mmHg 28%
    15:00 +30°C° 0 mm 2 mps 742 mmHg 30%
    16:00 +29°C° 0 mm 2 mps 742 mmHg 33%
    17:00 +27°C° 0 mm 1 mps 742 mmHg 35%
    18:00 +27°C° 0 mm 1 mps 742 mmHg 37%
    19:00 +26°C° 0 mm 1 mps 743 mmHg 39%
    20:00 +25°C° 0 mm 1 mps 744 mmHg 40%
    21:00 +25°C° 0 mm 1 mps 744 mmHg 42%
    22:00 +24°C° 0 mm 1 mps 744 mmHg 44%
    23:00 +24°C° 0 mm 1 mps 744 mmHg 46%

    17 November, Sunday

    Time Temperature Precipitation Wind Pressure Humidity
    00:00 +23°C° 0 mm 1 mps 743 mmHg 48%
    01:00 +23°C° 0 mm 1 mps 743 mmHg 49%
    02:00 +21°C° 0 mm 2 mps 743 mmHg 51%
    03:00 +21°C° 0 mm 2 mps 743 mmHg 53%
    04:00 +22°C° 0 mm 1 mps 743 mmHg 54%
    05:00 +21°C° 0 mm 1 mps 743 mmHg 56%
    06:00 +21°C° 0 mm 2 mps 744 mmHg 54%
    07:00 +23°C° 0 mm 2 mps 744 mmHg 51%
    08:00 +24°C° 0 mm 2 mps 745 mmHg 49%
    09:00 +26°C° 0 mm 3 mps 745 mmHg 44%
    10:00 +28°C° 0 mm 3 mps 745 mmHg 39%
    11:00 +30°C° 0 mm 4 mps 745 mmHg 34%
    12:00 +32°C° 0 mm 5 mps 744 mmHg 33%
    13:00 +32°C° 0 mm 5 mps 743 mmHg 31%
    14:00 +33°C° 0 mm 5 mps 742 mmHg 29%
    15:00 +32°C° 0 mm 4 mps 742 mmHg 33%
    16:00 +29°C° 0 mm 4 mps 742 mmHg 36%
    17:00 +28°C° 0 mm 3 mps 742 mmHg 39%
    18:00 +27°C° 0 mm 2 mps 742 mmHg 40%
    19:00 +26°C° 0 mm 2 mps 743 mmHg 41%
    20:00 +25°C° 0 mm 2 mps 743 mmHg 41%
    21:00 +24°C° 0 mm 2 mps 743 mmHg 42%
    22:00 +24°C° 0 mm 2 mps 743 mmHg 43%
    23:00 +23°C° 0 mm 2 mps 743 mmHg 44%

    18 November, Monday

    Time Temperature Precipitation Wind Pressure Humidity
    00:00 +23°C° 0 mm 2 mps 743 mmHg 45%
    01:00 +21°C° 0 mm 2 mps 742 mmHg 47%
    02:00 +21°C° 0 mm 2 mps 742 mmHg 48%
    03:00 +20°C° 0 mm 2 mps 742 mmHg 49%
    04:00 +20°C° 0 mm 2 mps 742 mmHg 51%
    05:00 +21°C° 0 mm 1 mps 742 mmHg 52%
    06:00 +21°C° 0 mm 2 mps 743 mmHg 50%
    07:00 +23°C° 0 mm 2 mps 743 mmHg 49%
    08:00 +24°C° 0 mm 2 mps 744 mmHg 47%
    09:00 +26°C° 0 mm 2 mps 744 mmHg 41%
    10:00 +28°C° 0 mm 3 mps 744 mmHg 36%
    11:00 +29°C° 0 mm 3 mps 744 mmHg 30%
    12:00 +30°C° 0 mm 4 mps 743 mmHg 29%
    13:00 +30°C° 0 mm 5 mps 742 mmHg 28%
    14:00 +32°C° 0 mm 5 mps 742 mmHg 27%
    15:00 +29°C° 0 mm 4 mps 742 mmHg 31%
    16:00 +28°C° 0 mm 3 mps 742 mmHg 34%
    17:00 +26°C° 0 mm 3 mps 742 mmHg 37%
    18:00 +26°C° 0 mm 3 mps 742 mmHg 37%
    19:00 +25°C° 0 mm 3 mps 742 mmHg 37%
    20:00 +24°C° 0 mm 3 mps 743 mmHg 38%
    21:00 +24°C° 0 mm 2 mps 743 mmHg 38%
    22:00 +23°C° 0 mm 2 mps 743 mmHg 37%
    23:00 +23°C° 0 mm 2 mps 743 mmHg 37%

    19 November, Tuesday

    Time Temperature Precipitation Wind Pressure Humidity
    00:00 +21°C° 0 mm 2 mps 742 mmHg 39%
    01:00 +21°C° 0 mm 1 mps 742 mmHg 40%
    02:00 +21°C° 0 mm 1 mps 742 mmHg 41%
    03:00 +21°C° 0 mm 1 mps 742 mmHg 41%
    04:00 +20°C° 0 mm 1 mps 742 mmHg 42%
    05:00 +20°C° 0 mm 1 mps 741 mmHg 42%
    06:00 +21°C° 0 mm 1 mps 742 mmHg 41%
    07:00 +22°C° 0 mm 1 mps 743 mmHg 39%
    08:00 +23°C° 0 mm 1 mps 743 mmHg 38%
    09:00 +25°C° 0 mm 1 mps 743 mmHg 34%
    10:00 +27°C° 0 mm 1 mps 743 mmHg 30%
    11:00 +29°C° 0 mm 1 mps 743 mmHg 27%
    12:00 +29°C° 0 mm 2 mps 742 mmHg 26%
    13:00 +30°C° 0 mm 2 mps 741 mmHg 25%
    14:00 +30°C° 0 mm 2 mps 741 mmHg 25%
    15:00 +29°C° 0 mm 2 mps 741 mmHg 28%
    16:00 +27°C° 0 mm 1 mps 740 mmHg 30%
    17:00 +26°C° 0 mm 1 mps 740 mmHg 33%
    18:00 +25°C° 0 mm 1 mps 741 mmHg 35%
    19:00 +24°C° 0 mm 1 mps 741 mmHg 37%
    20:00 +23°C° 0 mm 1 mps 741 mmHg 38%
    21:00 +21°C° 0 mm 0 mps 741 mmHg 39%
    22:00 +21°C° 0 mm 0 mps 741 mmHg 40%
    23:00 +20°C° 0 mm 0 mps 741 mmHg 41%
    Show more